Regional Weather Roundup
Issued by NWS

Home | Current Version | Previous Version | Text Only | Print | Product List | Glossary Off
Versions: 1 2 3 4 5 6 7 8 9 10 11 12 13 14 15 16 17 18 19 20 21 22 23 24 25 26 27 28 29 30 31 32 33 34 35 36 37 38 39 40 41 42 43 44 45 46 47 48 49 50

000
ASUS43 KLOT 232000
RWRIL

ILLINOIS REGIONAL WEATHER ROUNDUP
NATIONAL WEATHER SERVICE CHICAGO/ROMEOVILLE IL
300 PM CDT SAT AUG 23 2014

NOTE: "FAIR" INDICATES FEW OR NO CLOUDS BELOW 12,000 FEET WITH NO
SIGNIFICANT WEATHER AND/OR OBSTRUCTIONS TO VISIBILITY.

* THESE STATIONS ARE NOT UNDER NWS QUALITY CONTROL. THEY ALSO MAY NOT
  REPORT WEATHER SUCH AS PRECIPITATION OR FOG.

ILZ001-002-007-009-015-016-024-232100-
NORTHWEST ILLINOIS

CITY           SKY/WX    TMP DP  RH WIND       PRES   REMARKS
MOLINE         CLOUDY    76  71  85 SE9       29.93F
STERLING*      CLOUDY    72  68  88 S6        29.94S
$$

ILZ003-004-008-010-011-017-018-232100-
NORTH CENTRAL ILLINOIS

CITY           SKY/WX    TMP DP  RH WIND       PRES   REMARKS
ROCKFORD       CLOUDY    73  71  93 SE8       29.95S
FREEPORT*      CLOUDY    73  71  94 CALM      29.95R
$$

ILZ005-006-012>014-019>023-232100-
NORTHEAST ILLINOIS

CITY           SKY/WX    TMP DP  RH WIND       PRES   REMARKS
CHICAGO-OHARE  CLOUDY    71  65  81 NE10      29.98F THUNDER
CHICAGO-MIDWAY TSTM      73  70  90 NE9       30.01F
AURORA         LGT RAIN  73  68  84 E12       29.95F
WAUKEGAN       LGT RAIN  72  68  87 E10       29.95F
DUPAGE AIRPORT LGT RAIN  72  70  93 E10       29.97F
WHEELING       TSTM      71  68  90 E7        29.98F
NORTHERLY ISL    N/A     70  67  90 N17         N/A
$$

LMZ740>746-232100-
SOUTHERN LAKE MICHIGAN

STATION/POSITION SKY/WX   TEMP    WIND        PRES    VSBY  WAVE
                          AIR SEA DIR/SP/G                  HT/PER
                          (F)     (DEG/KT/KT) (MB)    (MI)  (FT/S)
SOUTHERN BUOY              70 70  110/  2/  2 1017.0R         1
WAUKEGAN HARBOR            71     260/  3/ 16   N/A
HARRISON CRIB              72      50/  5/  7   N/A
BURNHAM HARBOR             70      40/  9/ 22   N/A
CALUMET HARBOR             75     350/  5/  7 1015.5R
MICHIGAN CITY              76      20/ 11/ 12   N/A
MICHIGAN CITY 6N           75 73   30/  8/ 10   N/A           1/ 2
ST. JOSEPH                 79 74  350/  2/  2   N/A           0
$$

ILZ025>027-034>036-040-047-049-050-058-095>099-232100-
WEST-CENTRAL ILLINOIS

CITY           SKY/WX    TMP DP  RH WIND       PRES   REMARKS
QUINCY         MOSUNNY   90  73  57 SE8       29.92F HX  98
MACOMB*        PTSUNNY   82  73  74 E8        29.95F HX  86
$$

ILZ028>032-037-038-041>044-048-051>054-059>061-232100-
CENTRAL ILLINOIS

CITY           SKY/WX    TMP DP  RH WIND       PRES   REMARKS
DECATUR        PTSUNNY   89  79  72 E6        29.95F HX 104
PEORIA         CLOUDY    79  70  74 E12       29.95F HX  82
SPRINGFIELD    MOSUNNY   92  79  65 E7        29.93F HX 108
TAYLORVILLE    NOT AVBL
$$

ILZ033-039-045-046-055>057-062-063-232100-
EAST-CENTRAL ILLINOIS

CITY           SKY/WX    TMP DP  RH WIND       PRES   REMARKS
CHAMPAIGN      TSTM      74  72  93 N20G25    29.99R FOG
MATTOON        PTSUNNY   88  78  72 S3        29.94F HX 101
$$

ILZ079-100>102-232100-
SOUTHWEST ILLINOIS

CITY           SKY/WX    TMP DP  RH WIND       PRES   REMARKS
ALTON          MOSUNNY   93  81  66 SE9       29.92F HX 113
BELLEVILLE     MOSUNNY   95  77  55 N5        29.91F HX 110
CAHOKIA*       MOSUNNY   97  71  42 E5        29.91F HX 104
$$

ILZ064>066-069>071-074>076-080>082-084>086-088>090-092>094-232100-
SOUTH-CENTRAL ILLINOIS

CITY           SKY/WX    TMP DP  RH WIND       PRES   REMARKS
CARBONDALE     CLOUDY    93  77  59 CALM      29.94F HX 107
MARION         PTSUNNY   93  77  59 NE6       29.95F HX 107
MT. VERNON     MOSUNNY   93  79  62 CALM      29.94F HX 110
SALEM*         MOSUNNY   94  80  64 CALM      29.93F HX 113
$$

ILZ067-068-072-073-078-083-087-091-232100-
SOUTHEAST ILLINOIS

CITY           SKY/WX    TMP DP  RH WIND       PRES   REMARKS
LAWRENCEVILLE  CLOUDY    90  81  74 E7        29.93F HX 109
HARRISBURG*    PTSUNNY   92  78  63 SW5       29.95F HX 108
ROBINSON*      MOSUNNY   91  81  72 S3        29.94F HX 109
$$

ABBREVIATIONS USED IN REMARKS
   TC - TEMPERATURE IN CELSIUS
  WCI - WIND CHILL INDEX
   HX - HEAT INDEX
  VSB - VISIBILITY
$$



USA.gov is the U.S. government's official web portal to all federal, state and local government web resources and services.